Regional Weather Roundup
Issued by NWS

Home | Current Version | Previous Version | Text Only | Print | Product List | Glossary Off
Versions: 1 2 3 4 5 6 7 8 9 10 11 12 13 14 15 16 17 18 19 20 21 22 23 24 25 26 27 28 29 30 31 32 33 34 35 36 37 38 39 40 41 42 43 44 45 46 47 48 49 50

000
ASUS43 KIND 210109
RWRIN

WEATHER ROUNDUP FOR INDIANA
NATIONAL WEATHER SERVICE INDIANAPOLIS IN
800 PM EST TUE FEB 20 2018

NOTE: "FAIR" INDICATES FEW OR NO CLOUDS BELOW 12,000 FEET WITH NO
SIGNIFICANT WEATHER AND/OR OBSTRUCTIONS TO VISIBILITY.

* - STATION DOES NOT REPORT WEATHER SUCH AS PRECIPITATION OR FOG.

+ - STATION NOT QUALITY CONTROLLED BY THE NATIONAL WEATHER SERVICE.
    USE DATA WITH CAUTION...ESPECIALLY DEWPOINT AND RELATIVE
    HUMIDITY OBSERVATIONS.

INZ001>003-010>013-019-020-210200-
NORTHWEST INDIANA

CITY           SKY/WX    TMP DP  RH WIND       PRES   REMARKS
GARY /AIRPORT/ LGT RAIN  46  46 100 W16       30.05R
LA PORTE +     RAIN      55  54  99 SW5       30.00R
MICHIGAN CITY+ HVY RAIN  54  54 100 W7        30.02R
MONTICELLO +   RAIN      56  55  95 W8        30.03R
RENSSELAER +   RAIN      55  52  88 SW8       30.02R
VALPARAISO     RAIN      57  55  93 SW7       30.00R FOG

$$

LMZ046-743>745-210200-
SOUTHERN LAKE MICHIGAN

STATION/POSITION TIME  TEMP    WIND        PRES    WAVE
                       AIR SEA DIR/SP/G            HT
                 (UTC) (F)     (DEG/KT/KT) (MB)    (FT)
MICHIGAN CITY    0040   54     210/ 10/ 10   N/A

$$

INZ004-005-014>016-021>024-210200-
NORTH CENTRAL INDIANA

CITY           SKY/WX    TMP DP  RH WIND       PRES   REMARKS
ELKHART        RAIN      55  54  94 S6        30.00R
GOSHEN         LGT RAIN  56  55  97 S14       30.02S FOG
LOGANSPORT +   LGT RAIN  55  54  94 CALM      30.04S
PERU/GRISSOM   LGT RAIN  57  57 100 NW7       30.04R
ROCHESTER +    DRIZZLE   55  55 100 SE3       30.03F
SOUTH BEND     RAIN      54  54 100 S8        30.00F FOG
WARSAW +       LGT RAIN  54  54 100 CALM      30.03F

$$

INZ006>009-017-018-025>027-210200-
NORTHEAST INDIANA

CITY           SKY/WX    TMP DP  RH WIND       PRES   REMARKS
AUBURN +       DRIZZLE   55  55 100 NW12G20   30.05R
FORT WAYNE     LGT RAIN  61  57  87 NW16G25   30.05R
HUNTINGTON +   CLOUDY    59  56  89 NW13G22   30.04R
KENDALLVILLE + RAIN      55  55 100 CALM      30.05R

$$

INZ028-029-035-036-043>045-051>053-210200-
WEST CENTRAL INDIANA

CITY           SKY/WX    TMP DP  RH WIND       PRES   REMARKS
CRAWFORDSVL +  CLOUDY    67  56  69 S16G29    30.01S
GREENCASTLE +  FAIR      70  54  56 S13G21    30.04S
LAFAYETTE      LGT RAIN  56  56 100 NW7       30.03R
TERRE HAUTE    FAIR      69  57  65 S16G25    30.02R

$$

INZ030>032-037>040-046>048-054>057-064-065-210200-
CENTRAL INDIANA

CITY           SKY/WX    TMP DP  RH WIND       PRES   REMARKS
COLUMBUS       MOCLDY    72  48  43 S18G24    30.09R
FISHERS *+     FAIR      70  57  64 SW14      30.04
FRANKFORT +    CLOUDY    62  58  84 NW17G23   30.07R
GREENWOOD *+   FAIR      70 -28   2 S18G30    30.06S
INDIANAPOLIS   CLOUDY    71  53  52 S21G36    30.04S
-EAGLE CREEK   FAIR      73  53  49 S13G28    30.03S
KOKOMO +       CLOUDY    58  55  90 NW13      30.05R
MARION +       MOCLDY    66  56  69 S12G18    30.03R
MT COMFORT *+  FAIR      66  57  72 S8        30.05S
SHELBYVILLE    FAIR      70  54  56 S18       30.06R
ZIONSVILLE +   FAIR      68  55  62 S15       30.03S

$$

INZ033-034-041-042-049-050-058-059-210200-
EAST CENTRAL INDIANA

CITY           SKY/WX    TMP DP  RH WIND       PRES   REMARKS
MUNCIE         FAIR      71  54  54 S15       30.03S
RICHMOND +     FAIR      64  55  72 S18       30.11S

$$

INZ060-061-067>069-081>083-085>088-210200-
SOUTHWEST INDIANA

CITY           SKY/WX    TMP DP  RH WIND       PRES   REMARKS
EVANSVILLE     CLOUDY    70  59  68 S7        30.08S
HUNTINGBURG +  MOCLDY    69  59  70 S8        30.10S
WASHINGTON +   FAIR      67  54  63 S12       30.06F

$$

INZ062-063-066-070>080-084-089>092-210200-
SOUTH CENTRAL AND SOUTHEAST INDIANA

CITY           SKY/WX    TMP DP  RH WIND       PRES   REMARKS
BATESVILLE +   PTCLDY    70  55  60 MISG      30.10S
BEDFORD +      FAIR      72  54  53 S15G22    30.09
BLOOMINGTON    FAIR      70  55  59 S14       30.07S
FRENCH LICK *+ MOCLDY    70  52  52 S7        30.10F
MADISON *+     FAIR      70  54  56 S10G17    30.15R
NORTH VERNON + FAIR      70  54  56 S15G22    30.11R
SEYMOUR +      FAIR      72  54  53 SW13G23   30.10R

$$





USA.gov is the U.S. government's official web portal to all federal, state and local government web resources and services.